カタログに戻る

EUTE KONNECT VHTS

運用中通信GEO
NORAD 53765·PAYLOAD·🇪🇺 EU

打ち上げ Sep 7, 2022 から Guiana Space Centre

Loading…

TLE

最新Source: Space-Track

元期: Sep 14, 2026, 13:49 UTC

1 53765U 22110A   26257.57570769  .00000009  00000-0  00000-0 0  9999
2 53765   0.0552 104.5640 0002896  38.3509  60.6105  1.00270842  7732

AllMySatでEUTE KONNECT VHTSをリアルタイム追跡

Download on the App Store